Time,TemperatureF,DewpointF,PressureIn,WindDirection,WindDirectionDegrees,WindSpeedMPH,WindSpeedGustMPH,Humidity,HourlyPrecipIn,Conditions,Clouds,dailyrainin,SoftwareType,DateUTC
2013-01-12 00:03:00,70.0,67.0,30.15,East,101,7.0,-999.0,89,-99.99,,,-99.99,,2013-01-12 05:03:00,
2013-01-12 00:12:00,70.0,67.0,30.15,East,101,7.0,-999.0,89,-99.99,,,-99.99,,2013-01-12 05:12:00,
2013-01-12 00:22:00,70.0,67.0,30.15,East,96,6.0,-999.0,90,-99.99,,,-99.99,,2013-01-12 05:22:00,
2013-01-12 00:32:00,70.0,67.0,30.14,ESE,102,7.0,-999.0,91,-99.99,,,-99.99,,2013-01-12 05:32:00,
2013-01-12 00:42:00,70.0,67.0,30.14,ESE,102,7.0,-999.0,91,-99.99,,,-99.99,,2013-01-12 05:42:00,
2013-01-12 00:53:00,69.0,66.0,30.14,East,94,7.0,-999.0,91,-99.99,,,-99.99,,2013-01-12 05:53:00,
2013-01-12 01:02:00,69.0,66.0,30.14,East,91,5.0,-999.0,91,-99.99,,,-99.99,,2013-01-12 06:02:00,
2013-01-12 01:12:00,69.0,66.0,30.14,East,91,5.0,-999.0,91,-99.99,,,-99.99,,2013-01-12 06:12:00,
2013-01-12 01:22:00,69.0,66.0,30.14,East,91,5.0,-999.0,91,-99.99,,,-99.99,,2013-01-12 06:22:00,
2013-01-12 01:33:00,69.0,66.0,30.14,East,100,7.0,-999.0,91,-99.99,,,-99.99,,2013-01-12 06:33:00,
2013-01-12 01:43:00,69.0,66.0,30.14,East,100,7.0,-999.0,91,-99.99,,,-99.99,,2013-01-12 06:43:00,
2013-01-12 01:53:00,69.0,66.0,30.13,East,94,5.0,-999.0,91,-99.99,,,-99.99,,2013-01-12 06:53:00,
2013-01-12 02:02:00,69.0,66.0,30.13,East,92,6.0,-999.0,91,-99.99,,,-99.99,,2013-01-12 07:02:00,
2013-01-12 02:12:00,69.0,67.0,30.13,East,88,6.0,-999.0,92,-99.99,,,-99.99,,2013-01-12 07:12:00,
2013-01-12 02:22:00,69.0,67.0,30.13,East,88,6.0,-999.0,92,-99.99,,,-99.99,,2013-01-12 07:22:00,
2013-01-12 02:32:00,69.0,67.0,30.13,East,96,5.0,-999.0,92,-99.99,,,-99.99,,2013-01-12 07:32:00,
2013-01-12 02:42:00,69.0,67.0,30.13,East,96,5.0,-999.0,92,-99.99,,,-99.99,,2013-01-12 07:42:00,
2013-01-12 02:53:00,69.0,67.0,30.12,East,96,6.0,-999.0,92,-99.99,,,-99.99,,2013-01-12 07:53:00,
2013-01-12 03:02:00,68.0,66.0,30.12,East,88,4.0,-999.0,92,-99.99,,,-99.99,,2013-01-12 08:02:00,
2013-01-12 03:12:00,68.0,66.0,30.12,East,88,4.0,-999.0,92,-99.99,,,-99.99,,2013-01-12 08:12:00,
2013-01-12 03:22:00,69.0,67.0,30.11,East,81,6.0,-999.0,92,-99.99,,,-99.99,,2013-01-12 08:22:00,
2013-01-12 03:32:00,69.0,67.0,30.11,East,93,7.0,-999.0,92,-99.99,,,-99.99,,2013-01-12 08:32:00,
2013-01-12 03:42:00,69.0,67.0,30.11,East,93,7.0,-999.0,92,-99.99,,,-99.99,,2013-01-12 08:42:00,
2013-01-12 03:52:00,69.0,67.0,30.11,East,96,8.0,-999.0,92,-99.99,,,-99.99,,2013-01-12 08:52:00,
2013-01-12 04:02:00,69.0,67.0,30.11,East,96,7.0,-999.0,92,-99.99,,,-99.99,,2013-01-12 09:02:00,
2013-01-12 04:12:00,69.0,67.0,30.11,East,96,7.0,-999.0,92,-99.99,,,-99.99,,2013-01-12 09:12:00,
2013-01-12 04:22:00,69.0,67.0,30.11,East,100,6.0,-999.0,92,-99.99,,,-99.99,,2013-01-12 09:22:00,
2013-01-12 04:32:00,69.0,67.0,30.11,East,90,6.0,-999.0,92,-99.99,,,-99.99,,2013-01-12 09:32:00,
2013-01-12 04:53:00,69.0,67.0,30.11,East,79,7.0,-999.0,92,-99.99,,,-99.99,,2013-01-12 09:53:00,
2013-01-12 05:02:00,69.0,67.0,30.11,East,98,5.0,-999.0,92,-99.99,,,-99.99,,2013-01-12 10:02:00,
2013-01-12 05:12:00,69.0,67.0,30.11,East,98,5.0,-999.0,92,-99.99,,,-99.99,,2013-01-12 10:12:00,
2013-01-12 05:22:00,69.0,67.0,30.11,ESE,104,5.0,-999.0,92,-99.99,,,-99.99,,2013-01-12 10:22:00,
2013-01-12 05:32:00,69.0,67.0,30.11,ESE,104,5.0,-999.0,92,-99.99,,,-99.99,,2013-01-12 10:32:00,
2013-01-12 05:42:00,69.0,67.0,30.11,ESE,104,5.0,-999.0,92,-99.99,,,-99.99,,2013-01-12 10:42:00,
2013-01-12 05:52:00,69.0,67.0,30.11,East,92,6.0,-999.0,92,-99.99,,,-99.99,,2013-01-12 10:52:00,
2013-01-12 06:02:00,69.0,67.0,30.11,East,100,6.0,-999.0,93,-99.99,,,-99.99,,2013-01-12 11:02:00,
2013-01-12 06:12:00,69.0,67.0,30.11,East,100,6.0,-999.0,93,-99.99,,,-99.99,,2013-01-12 11:12:00,
2013-01-12 06:22:00,69.0,67.0,30.11,East,95,6.0,-999.0,92,-99.99,,,-99.99,,2013-01-12 11:22:00,
2013-01-12 06:33:00,69.0,67.0,30.11,East,88,6.0,-999.0,92,-99.99,,,-99.99,,2013-01-12 11:33:00,
2013-01-12 06:42:00,69.0,67.0,30.11,East,88,6.0,-999.0,92,-99.99,,,-99.99,,2013-01-12 11:42:00,
2013-01-12 06:53:00,68.0,66.0,30.12,East,98,5.0,-999.0,93,-99.99,,,-99.99,,2013-01-12 11:53:00,
2013-01-12 07:03:00,68.0,66.0,30.12,East,90,6.0,-999.0,93,-99.99,,,-99.99,,2013-01-12 12:03:00,
2013-01-12 07:12:00,68.0,66.0,30.12,East,90,6.0,-999.0,93,-99.99,,,-99.99,,2013-01-12 12:12:00,
2013-01-12 07:22:00,68.0,66.0,30.12,East,95,7.0,-999.0,93,-99.99,,,-99.99,,2013-01-12 12:22:00,
2013-01-12 07:33:00,68.0,66.0,30.13,East,99,7.0,-999.0,93,-99.99,,,-99.99,,2013-01-12 12:33:00,
2013-01-12 07:43:00,68.0,66.0,30.13,East,99,7.0,-999.0,93,-99.99,,,-99.99,,2013-01-12 12:43:00,
2013-01-12 07:52:00,68.0,66.0,30.13,East,101,6.0,-999.0,93,-99.99,,,-99.99,,2013-01-12 12:52:00,
2013-01-12 08:02:00,69.0,67.0,30.14,East,81,5.0,-999.0,93,-99.99,,,-99.99,,2013-01-12 13:02:00,
2013-01-12 08:12:00,69.0,67.0,30.14,East,81,5.0,-999.0,93,-99.99,,,-99.99,,2013-01-12 13:12:00,
2013-01-12 08:23:00,69.0,67.0,30.14,NE,40,2.0,-999.0,92,-99.99,,,-99.99,,2013-01-12 13:23:00,
2013-01-12 08:33:00,70.0,67.0,30.14,ENE,66,6.0,-999.0,91,-99.99,,,-99.99,,2013-01-12 13:33:00,
2013-01-12 08:43:00,70.0,67.0,30.14,ENE,66,6.0,-999.0,91,-99.99,,,-99.99,,2013-01-12 13:43:00,
2013-01-12 08:53:00,70.0,67.0,30.14,East,100,4.0,-999.0,90,-99.99,,,-99.99,,2013-01-12 13:53:00,
2013-01-12 09:02:00,71.0,67.0,30.14,East,93,5.0,-999.0,88,-99.99,,,-99.99,,2013-01-12 14:02:00,
2013-01-12 09:12:00,71.0,67.0,30.14,East,93,5.0,-999.0,88,-99.99,,,-99.99,,2013-01-12 14:12:00,
2013-01-12 09:22:00,72.0,68.0,30.15,SE,146,7.0,-999.0,87,-99.99,,,-99.99,,2013-01-12 14:22:00,
2013-01-12 09:33:00,72.0,68.0,30.15,ESE,103,7.0,-999.0,88,-99.99,,,-99.99,,2013-01-12 14:33:00,
2013-01-12 09:43:00,72.0,68.0,30.15,ESE,103,7.0,-999.0,88,-99.99,,,-99.99,,2013-01-12 14:43:00,
2013-01-12 09:53:00,73.0,69.0,30.15,ESE,105,6.0,-999.0,88,-99.99,,,-99.99,,2013-01-12 14:53:00,
2013-01-12 10:03:00,73.0,69.0,30.16,ESE,103,7.0,-999.0,86,-99.99,,,-99.99,,2013-01-12 15:03:00,
2013-01-12 10:13:00,73.0,69.0,30.16,ESE,103,7.0,-999.0,86,-99.99,,,-99.99,,2013-01-12 15:13:00,
2013-01-12 10:23:00,74.0,70.0,30.16,East,93,6.0,-999.0,86,-99.99,,,-99.99,,2013-01-12 15:23:00,
2013-01-12 10:33:00,74.0,70.0,30.16,East,93,6.0,-999.0,86,-99.99,,,-99.99,,2013-01-12 15:33:00,
2013-01-12 10:43:00,74.0,70.0,30.16,East,93,6.0,-999.0,86,-99.99,,,-99.99,,2013-01-12 15:43:00,
2013-01-12 10:53:00,75.0,70.0,30.16,ESE,117,6.0,-999.0,84,-99.99,,,-99.99,,2013-01-12 15:53:00,
2013-01-12 11:03:00,75.0,69.0,30.15,East,97,7.0,-999.0,83,-99.99,,,-99.99,,2013-01-12 16:03:00,
2013-01-12 11:12:00,75.0,69.0,30.15,East,97,7.0,-999.0,83,-99.99,,,-99.99,,2013-01-12 16:12:00,
2013-01-12 11:23:00,75.0,69.0,30.14,SE,126,7.0,-999.0,82,-99.99,,,-99.99,,2013-01-12 16:23:00,
2013-01-12 11:33:00,76.0,69.0,30.13,ESE,119,7.0,-999.0,79,-99.99,,,-99.99,,2013-01-12 16:33:00,
2013-01-12 11:43:00,76.0,69.0,30.13,ESE,119,7.0,-999.0,79,-99.99,,,-99.99,,2013-01-12 16:43:00,
2013-01-12 11:53:00,76.0,68.0,30.13,ESE,115,7.0,-999.0,77,-99.99,,,-99.99,,2013-01-12 16:53:00,
2013-01-12 12:02:00,76.0,68.0,30.12,ESE,107,8.0,-999.0,76,-99.99,,,-99.99,,2013-01-12 17:02:00,
2013-01-12 12:12:00,76.0,68.0,30.12,ESE,107,8.0,-999.0,76,-99.99,,,-99.99,,2013-01-12 17:12:00,
2013-01-12 12:23:00,77.0,69.0,30.11,ESE,108,5.0,-999.0,77,-99.99,,,-99.99,,2013-01-12 17:23:00,
2013-01-12 12:33:00,77.0,69.0,30.11,East,95,6.0,-999.0,76,-99.99,,,-99.99,,2013-01-12 17:33:00,
2013-01-12 12:43:00,77.0,69.0,30.11,East,95,6.0,-999.0,76,-99.99,,,-99.99,,2013-01-12 17:43:00,
2013-01-12 12:53:00,77.0,69.0,30.09,ESE,115,7.0,-999.0,76,-99.99,,,-99.99,,2013-01-12 17:53:00,
2013-01-12 13:03:00,77.0,68.0,30.09,SE,130,9.0,-999.0,75,-99.99,,,-99.99,,2013-01-12 18:03:00,
2013-01-12 13:12:00,77.0,68.0,30.09,SE,130,9.0,-999.0,75,-99.99,,,-99.99,,2013-01-12 18:12:00,
2013-01-12 13:23:00,78.0,68.0,30.08,ESE,108,8.0,-999.0,71,-99.99,,,-99.99,,2013-01-12 18:23:00,
2013-01-12 13:33:00,78.0,68.0,30.07,ESE,118,8.0,-999.0,71,-99.99,,,-99.99,,2013-01-12 18:33:00,
2013-01-12 13:43:00,78.0,68.0,30.07,ESE,118,8.0,-999.0,71,-99.99,,,-99.99,,2013-01-12 18:43:00,
2013-01-12 13:52:00,78.0,69.0,30.07,ESE,110,7.0,-999.0,74,-99.99,,,-99.99,,2013-01-12 18:52:00,
2013-01-12 14:03:00,78.0,68.0,30.06,East,97,8.0,-999.0,71,-99.99,,,-99.99,,2013-01-12 19:03:00,
2013-01-12 14:12:00,78.0,68.0,30.06,East,97,8.0,-999.0,71,-99.99,,,-99.99,,2013-01-12 19:12:00,
2013-01-12 14:23:00,78.0,68.0,30.05,SE,142,7.0,-999.0,71,-99.99,,,-99.99,,2013-01-12 19:23:00,
2013-01-12 14:33:00,79.0,68.0,30.05,East,87,6.0,-999.0,70,-99.99,,,-99.99,,2013-01-12 19:33:00,
2013-01-12 14:43:00,79.0,68.0,30.05,East,87,6.0,-999.0,70,-99.99,,,-99.99,,2013-01-12 19:43:00,
2013-01-12 14:52:00,80.0,69.0,30.05,East,90,8.0,-999.0,70,-99.99,,,-99.99,,2013-01-12 19:52:00,
2013-01-12 15:03:00,79.0,67.0,30.05,ESE,110,7.0,-999.0,67,-99.99,,,-99.99,,2013-01-12 20:03:00,
2013-01-12 15:13:00,79.0,67.0,30.04,ESE,116,7.0,-999.0,66,-99.99,,,-99.99,,2013-01-12 20:13:00,
2013-01-12 15:22:00,79.0,67.0,30.04,ESE,116,7.0,-999.0,66,-99.99,,,-99.99,,2013-01-12 20:22:00,
2013-01-12 15:33:00,79.0,66.0,30.04,ESE,123,6.0,-999.0,64,-99.99,,,-99.99,,2013-01-12 20:33:00,
2013-01-12 15:42:00,79.0,66.0,30.04,ESE,123,6.0,-999.0,64,-99.99,,,-99.99,,2013-01-12 20:42:00,
2013-01-12 15:53:00,80.0,68.0,30.04,ESE,117,5.0,-999.0,67,-99.99,,,-99.99,,2013-01-12 20:53:00,
2013-01-12 16:03:00,79.0,68.0,30.04,ESE,117,7.0,-999.0,69,-99.99,,,-99.99,,2013-01-12 21:03:00,
2013-01-12 16:12:00,79.0,68.0,30.04,ESE,117,7.0,-999.0,69,-99.99,,,-99.99,,2013-01-12 21:12:00,
2013-01-12 16:22:00,79.0,68.0,30.04,ESE,117,7.0,-999.0,69,-99.99,,,-99.99,,2013-01-12 21:22:00,
2013-01-12 16:33:00,79.0,68.0,30.05,SW,223,5.0,-999.0,70,-99.99,,,-99.99,,2013-01-12 21:33:00,
2013-01-12 16:43:00,79.0,68.0,30.05,SW,223,5.0,-999.0,70,-99.99,,,-99.99,,2013-01-12 21:43:00,
2013-01-12 16:53:00,80.0,68.0,30.06,SW,221,5.0,-999.0,68,-99.99,,,-99.99,,2013-01-12 21:53:00,
2013-01-12 17:03:00,80.0,68.0,30.06,WSW,237,5.0,-999.0,68,-99.99,,,-99.99,,2013-01-12 22:03:00,
2013-01-12 17:12:00,80.0,68.0,30.06,WSW,237,5.0,-999.0,68,-99.99,,,-99.99,,2013-01-12 22:12:00,
2013-01-12 17:23:00,80.0,68.0,30.06,SW,224,4.0,-999.0,68,-99.99,,,-99.99,,2013-01-12 22:23:00,
2013-01-12 17:33:00,79.0,68.0,30.06,West,263,3.0,-999.0,69,-99.99,,,-99.99,,2013-01-12 22:33:00,
2013-01-12 17:43:00,79.0,68.0,30.06,West,263,3.0,-999.0,69,-99.99,,,-99.99,,2013-01-12 22:43:00,
2013-01-12 17:52:00,78.0,68.0,30.07,SW,225,3.0,-999.0,71,-99.99,,,-99.99,,2013-01-12 22:52:00,
2013-01-12 18:03:00,77.0,68.0,30.08,SW,234,3.0,-999.0,73,-99.99,,,-99.99,,2013-01-12 23:03:00,
2013-01-12 18:13:00,76.0,67.0,30.08,West,267,3.0,-999.0,74,-99.99,,,-99.99,,2013-01-12 23:13:00,
2013-01-12 18:23:00,76.0,67.0,30.08,West,267,3.0,-999.0,74,-99.99,,,-99.99,,2013-01-12 23:23:00,
2013-01-12 18:33:00,76.0,67.0,30.08,West,271,2.0,-999.0,75,-99.99,,,-99.99,,2013-01-12 23:33:00,
2013-01-12 18:43:00,76.0,67.0,30.08,West,271,2.0,-999.0,75,-99.99,,,-99.99,,2013-01-12 23:43:00,
2013-01-12 18:53:00,75.0,67.0,30.09,West,271,1.0,-999.0,76,-99.99,,,-99.99,,2013-01-12 23:53:00,
2013-01-12 19:03:00,74.0,66.0,30.09,West,271,1.0,-999.0,77,-99.99,,,-99.99,,2013-01-13 00:03:00,
2013-01-12 19:12:00,74.0,66.0,30.09,West,271,1.0,-999.0,77,-99.99,,,-99.99,,2013-01-13 00:12:00,
2013-01-12 19:23:00,74.0,67.0,30.09,West,271,0.0,-999.0,80,-99.99,,,-99.99,,2013-01-13 00:23:00,
2013-01-12 19:33:00,74.0,68.0,30.09,West,272,1.0,-999.0,83,-99.99,,,-99.99,,2013-01-13 00:33:00,
2013-01-12 19:43:00,74.0,68.0,30.09,West,272,1.0,-999.0,83,-99.99,,,-99.99,,2013-01-13 00:43:00,
2013-01-12 19:52:00,74.0,68.0,30.09,West,272,0.0,-999.0,82,-99.99,,,-99.99,,2013-01-13 00:52:00,
2013-01-12 20:03:00,74.0,69.0,30.09,West,271,1.0,-999.0,84,-99.99,,,-99.99,,2013-01-13 01:03:00,
2013-01-12 20:12:00,74.0,69.0,30.09,West,271,1.0,-999.0,84,-99.99,,,-99.99,,2013-01-13 01:12:00,
2013-01-12 20:23:00,74.0,69.0,30.10,West,269,0.0,-999.0,85,-99.99,,,-99.99,,2013-01-13 01:23:00,
2013-01-12 20:33:00,74.0,68.0,30.09,SE,146,1.0,-999.0,82,-99.99,,,-99.99,,2013-01-13 01:33:00,
2013-01-12 20:43:00,74.0,68.0,30.09,SE,146,1.0,-999.0,82,-99.99,,,-99.99,,2013-01-13 01:43:00,
2013-01-12 20:52:00,74.0,69.0,30.09,SE,128,2.0,-999.0,84,-99.99,,,-99.99,,2013-01-13 01:52:00,
2013-01-12 21:02:00,74.0,69.0,30.09,SE,128,1.0,-999.0,85,-99.99,,,-99.99,,2013-01-13 02:02:00,
2013-01-12 21:13:00,74.0,69.0,30.09,SE,128,1.0,-999.0,85,-99.99,,,-99.99,,2013-01-13 02:13:00,
2013-01-12 21:23:00,74.0,69.0,30.08,SE,128,1.0,-999.0,85,-99.99,,,-99.99,,2013-01-13 02:23:00,
2013-01-12 21:33:00,73.0,68.0,30.08,SE,124,2.0,-999.0,84,-99.99,,,-99.99,,2013-01-13 02:33:00,
2013-01-12 21:43:00,73.0,68.0,30.08,SE,124,2.0,-999.0,84,-99.99,,,-99.99,,2013-01-13 02:43:00,
2013-01-12 21:52:00,73.0,68.0,30.08,ESE,121,3.0,-999.0,84,-99.99,,,-99.99,,2013-01-13 02:52:00,
2013-01-12 22:03:00,73.0,68.0,30.08,ESE,106,4.0,-999.0,83,-99.99,,,-99.99,,2013-01-13 03:03:00,
2013-01-12 22:12:00,73.0,68.0,30.08,ESE,106,4.0,-999.0,83,-99.99,,,-99.99,,2013-01-13 03:12:00,
2013-01-12 22:22:00,73.0,67.0,30.08,ESE,109,6.0,-999.0,82,-99.99,,,-99.99,,2013-01-13 03:22:00,
2013-01-12 22:33:00,73.0,67.0,30.08,ESE,110,6.0,-999.0,82,-99.99,,,-99.99,,2013-01-13 03:33:00,
2013-01-12 22:43:00,73.0,67.0,30.08,ESE,110,6.0,-999.0,82,-99.99,,,-99.99,,2013-01-13 03:43:00,
2013-01-12 22:52:00,72.0,66.0,30.08,ESE,107,7.0,-999.0,81,-99.99,,,-99.99,,2013-01-13 03:52:00,
2013-01-12 23:03:00,72.0,67.0,30.08,ESE,105,6.0,-999.0,84,-99.99,,,-99.99,,2013-01-13 04:03:00,
2013-01-12 23:12:00,72.0,67.0,30.08,ESE,105,6.0,-999.0,84,-99.99,,,-99.99,,2013-01-13 04:12:00,
2013-01-12 23:22:00,72.0,67.0,30.07,ESE,117,6.0,-999.0,84,-99.99,,,-99.99,,2013-01-13 04:22:00,
2013-01-12 23:33:00,72.0,67.0,30.08,East,101,7.0,-999.0,85,-99.99,,,-99.99,,2013-01-13 04:33:00,
2013-01-12 23:43:00,72.0,67.0,30.08,East,101,7.0,-999.0,85,-99.99,,,-99.99,,2013-01-13 04:43:00,
2013-01-12 23:52:00,71.0,66.0,30.07,ESE,114,6.0,-999.0,85,-99.99,,,-99.99,,2013-01-13 04:52:00,